Year,Month,Day,Hour,Minute,Value (Times are PST for temperature in C)
2012,06,25,00,00,19.20
2012,06,25,00,01,19.20
2012,06,25,00,02,19.20
2012,06,25,00,03,19.20
2012,06,25,00,04,19.20
2012,06,25,00,05,19.20
2012,06,25,00,06,19.20
2012,06,25,00,07,19.20
2012,06,25,00,08,19.20
2012,06,25,00,09,19.20
2012,06,25,00,10,19.10
2012,06,25,00,11,19.10
2012,06,25,00,12,19.10
2012,06,25,00,13,19.10
2012,06,25,00,14,19.00
2012,06,25,00,15,19.00
2012,06,25,00,16,18.90
2012,06,25,00,17,18.90
2012,06,25,00,18,18.90
2012,06,25,00,19,18.80
2012,06,25,00,20,18.80
2012,06,25,00,21,18.80
2012,06,25,00,22,18.80
2012,06,25,00,23,18.70
2012,06,25,00,24,18.70
2012,06,25,00,25,18.70
2012,06,25,00,26,18.60
2012,06,25,00,27,18.60
2012,06,25,00,28,18.60
2012,06,25,00,29,18.60
2012,06,25,00,30,18.50
2012,06,25,00,31,18.50
2012,06,25,00,32,18.50
2012,06,25,00,33,18.50
2012,06,25,00,34,18.50
2012,06,25,00,35,18.60
2012,06,25,00,36,18.60
2012,06,25,00,37,18.60
2012,06,25,00,38,18.70
2012,06,25,00,39,18.70
2012,06,25,00,40,18.70
2012,06,25,00,41,18.70
2012,06,25,00,42,18.70
2012,06,25,00,43,18.70
2012,06,25,00,44,18.70
2012,06,25,00,45,18.70
2012,06,25,00,46,18.60
2012,06,25,00,47,18.60
2012,06,25,00,48,18.50
2012,06,25,00,49,18.50
2012,06,25,00,50,18.50
2012,06,25,00,51,18.40
2012,06,25,00,52,18.40
2012,06,25,00,53,18.40
2012,06,25,00,54,18.40
2012,06,25,00,55,18.30
2012,06,25,00,56,18.30
2012,06,25,00,57,18.30
2012,06,25,00,58,18.30
2012,06,25,00,59,18.30
2012,06,25,01,00,18.20
2012,06,25,01,01,18.20
2012,06,25,01,02,18.20
2012,06,25,01,03,18.20
2012,06,25,01,04,18.20
2012,06,25,01,05,18.20
2012,06,25,01,06,18.20
2012,06,25,01,07,18.20
2012,06,25,01,08,18.20
2012,06,25,01,09,18.10
2012,06,25,01,10,18.10
2012,06,25,01,11,18.10
2012,06,25,01,12,18.10
2012,06,25,01,13,18.10
2012,06,25,01,14,18.10
2012,06,25,01,15,18.10
2012,06,25,01,16,18.10
2012,06,25,01,17,18.10
2012,06,25,01,18,18.10
2012,06,25,01,19,18.10
2012,06,25,01,20,18.10
2012,06,25,01,21,18.10
2012,06,25,01,22,18.10
2012,06,25,01,23,18.10
2012,06,25,01,24,18.10
2012,06,25,01,25,18.10
2012,06,25,01,26,18.10
2012,06,25,01,27,18.10
2012,06,25,01,28,18.10
2012,06,25,01,29,18.00
2012,06,25,01,30,18.00
2012,06,25,01,31,17.90
2012,06,25,01,32,17.90
2012,06,25,01,33,17.90
2012,06,25,01,34,17.80
2012,06,25,01,35,17.80
2012,06,25,01,36,17.80
2012,06,25,01,37,17.80
2012,06,25,01,38,17.70
2012,06,25,01,39,17.70
2012,06,25,01,40,17.70
2012,06,25,01,41,17.70
2012,06,25,01,42,17.70
2012,06,25,01,43,17.70
2012,06,25,01,44,17.60
2012,06,25,01,45,17.60
2012,06,25,01,46,17.60
2012,06,25,01,47,17.60
2012,06,25,01,48,17.60
2012,06,25,01,49,17.70
2012,06,25,01,50,17.70
2012,06,25,01,51,17.70
2012,06,25,01,52,17.60
2012,06,25,01,53,17.60
2012,06,25,01,54,17.60
2012,06,25,01,55,17.60
2012,06,25,01,56,17.60
2012,06,25,01,57,17.50
2012,06,25,01,58,17.50
2012,06,25,01,59,17.50
2012,06,25,02,00,17.40
2012,06,25,02,01,17.40
2012,06,25,02,02,17.40
2012,06,25,02,03,17.40
2012,06,25,02,04,17.40
2012,06,25,02,05,17.40
2012,06,25,02,06,17.40
2012,06,25,02,07,17.40
2012,06,25,02,08,17.40
2012,06,25,02,09,17.40
2012,06,25,02,10,17.40
2012,06,25,02,11,17.40
2012,06,25,02,12,17.40
2012,06,25,02,13,17.40
2012,06,25,02,14,17.40
2012,06,25,02,15,17.40
2012,06,25,02,16,17.40
2012,06,25,02,17,17.40
2012,06,25,02,18,17.40
2012,06,25,02,19,17.40
2012,06,25,02,20,17.40
2012,06,25,02,21,17.40
2012,06,25,02,22,17.40
2012,06,25,02,23,17.40
2012,06,25,02,24,17.40
2012,06,25,02,25,17.40
2012,06,25,02,26,17.40
2012,06,25,02,27,17.50
2012,06,25,02,28,17.50
2012,06,25,02,29,17.60
2012,06,25,02,30,17.60
2012,06,25,02,31,17.60
2012,06,25,02,32,17.60
2012,06,25,02,33,17.60
2012,06,25,02,34,17.60
2012,06,25,02,35,17.60
2012,06,25,02,36,17.60
2012,06,25,02,37,17.60
2012,06,25,02,38,17.60
2012,06,25,02,39,17.60
2012,06,25,02,40,17.50
2012,06,25,02,41,17.50
2012,06,25,02,42,17.50
2012,06,25,02,43,17.40
2012,06,25,02,44,17.40
2012,06,25,02,45,17.40
2012,06,25,02,46,17.40
2012,06,25,02,47,17.30
2012,06,25,02,48,17.30
2012,06,25,02,49,17.20
2012,06,25,02,50,17.20
2012,06,25,02,51,17.20
2012,06,25,02,52,17.20
2012,06,25,02,53,17.10
2012,06,25,02,54,17.10
2012,06,25,02,55,17.10
2012,06,25,02,56,17.00
2012,06,25,02,57,17.00
2012,06,25,02,58,17.00
2012,06,25,02,59,16.90
2012,06,25,03,00,16.90
2012,06,25,03,01,16.90
2012,06,25,03,02,16.90
2012,06,25,03,03,16.80
2012,06,25,03,04,16.80
2012,06,25,03,05,16.80
2012,06,25,03,06,16.80
2012,06,25,03,07,16.80
2012,06,25,03,08,16.80
2012,06,25,03,09,16.80
2012,06,25,03,10,16.80
2012,06,25,03,11,16.70
2012,06,25,03,12,16.70
2012,06,25,03,13,16.70
2012,06,25,03,14,16.70
2012,06,25,03,15,16.70
2012,06,25,03,16,16.70
2012,06,25,03,17,16.70
2012,06,25,03,18,16.70
2012,06,25,03,19,16.70
2012,06,25,03,20,16.70
2012,06,25,03,21,16.70
2012,06,25,03,22,16.70
2012,06,25,03,23,16.70
2012,06,25,03,24,16.60
2012,06,25,03,25,16.60
2012,06,25,03,26,16.60
2012,06,25,03,27,16.60
2012,06,25,03,28,16.60
2012,06,25,03,29,16.60
2012,06,25,03,30,16.60
2012,06,25,03,31,16.60
2012,06,25,03,32,16.60
2012,06,25,03,33,16.60
2012,06,25,03,34,16.60
2012,06,25,03,35,16.60
2012,06,25,03,36,16.60
2012,06,25,03,37,16.60
2012,06,25,03,38,16.60
2012,06,25,03,39,16.60
2012,06,25,03,40,16.60
2012,06,25,03,41,16.60
2012,06,25,03,42,16.60
2012,06,25,03,43,16.50
2012,06,25,03,44,16.50
2012,06,25,03,45,16.50
2012,06,25,03,46,16.50
2012,06,25,03,47,16.50
2012,06,25,03,48,16.40
2012,06,25,03,49,16.40
2012,06,25,03,50,16.40
2012,06,25,03,51,16.40
2012,06,25,03,52,16.40
2012,06,25,03,53,16.30
2012,06,25,03,54,16.30
2012,06,25,03,55,16.30
2012,06,25,03,56,16.30
2012,06,25,03,57,16.30
2012,06,25,03,58,16.30
2012,06,25,03,59,16.30
2012,06,25,04,00,16.20
2012,06,25,04,01,16.20
2012,06,25,04,02,16.20
2012,06,25,04,03,16.20
2012,06,25,04,04,16.20
2012,06,25,04,05,16.20
2012,06,25,04,06,16.20
2012,06,25,04,07,16.20
2012,06,25,04,08,16.20
2012,06,25,04,09,16.20
2012,06,25,04,10,16.20
2012,06,25,04,11,16.10
2012,06,25,04,12,16.10
2012,06,25,04,13,16.10
2012,06,25,04,14,16.10
2012,06,25,04,15,16.10
2012,06,25,04,16,16.10
2012,06,25,04,17,16.10
2012,06,25,04,18,16.10
2012,06,25,04,19,16.10
2012,06,25,04,20,16.10
2012,06,25,04,21,16.10
2012,06,25,04,22,16.10
2012,06,25,04,23,16.10
2012,06,25,04,24,16.00
2012,06,25,04,25,16.00
2012,06,25,04,26,16.00
2012,06,25,04,27,16.00
2012,06,25,04,28,15.90
2012,06,25,04,29,15.90
2012,06,25,04,30,15.90
2012,06,25,04,31,15.90
2012,06,25,04,32,15.90
2012,06,25,04,33,15.90
2012,06,25,04,34,15.90
2012,06,25,04,35,15.90
2012,06,25,04,36,15.90
2012,06,25,04,37,15.90
2012,06,25,04,38,15.80
2012,06,25,04,39,15.80
2012,06,25,04,40,15.80
2012,06,25,04,41,15.80
2012,06,25,04,42,15.80
2012,06,25,04,43,15.80
2012,06,25,04,44,15.80
2012,06,25,04,45,15.80
2012,06,25,04,46,15.80
2012,06,25,04,47,15.80
2012,06,25,04,48,15.80
2012,06,25,04,49,15.70
2012,06,25,04,50,15.70
2012,06,25,04,51,15.70
2012,06,25,04,52,15.70
2012,06,25,04,53,15.70
2012,06,25,04,54,15.70
2012,06,25,04,55,15.70
2012,06,25,04,56,15.70
2012,06,25,04,57,15.70
2012,06,25,04,58,15.60
2012,06,25,04,59,15.60
2012,06,25,05,00,15.60
2012,06,25,05,01,15.60
2012,06,25,05,02,15.60
2012,06,25,05,03,15.60
2012,06,25,05,04,15.60
2012,06,25,05,05,15.60
2012,06,25,05,06,15.60
2012,06,25,05,07,15.60
2012,06,25,05,08,15.60
2012,06,25,05,09,15.60
2012,06,25,05,10,15.60
2012,06,25,05,11,15.50
2012,06,25,05,12,15.50
2012,06,25,05,13,15.50
2012,06,25,05,14,15.50
2012,06,25,05,15,15.50
2012,06,25,05,16,15.40
2012,06,25,05,17,15.40
2012,06,25,05,18,15.40
2012,06,25,05,19,15.40
2012,06,25,05,20,15.40
2012,06,25,05,21,15.40
2012,06,25,05,22,15.40
2012,06,25,05,23,15.40
2012,06,25,05,24,15.40
2012,06,25,05,25,15.40
2012,06,25,05,26,15.40
2012,06,25,05,27,15.40
2012,06,25,05,28,15.40
2012,06,25,05,29,15.40
2012,06,25,05,30,15.40
2012,06,25,05,31,15.40
2012,06,25,05,32,15.40
2012,06,25,05,33,15.40
2012,06,25,05,34,15.40
2012,06,25,05,35,15.40
2012,06,25,05,36,15.40
2012,06,25,05,37,15.40
2012,06,25,05,38,15.40
2012,06,25,05,39,15.40
2012,06,25,05,40,15.40
2012,06,25,05,41,15.40
2012,06,25,05,42,15.40
2012,06,25,05,43,15.40
2012,06,25,05,44,15.40
2012,06,25,05,45,15.40
2012,06,25,05,46,15.40
2012,06,25,05,47,15.40
2012,06,25,05,48,15.40
2012,06,25,05,49,15.40
2012,06,25,05,50,15.40
2012,06,25,05,51,15.40
2012,06,25,05,52,15.40
2012,06,25,05,53,15.40
2012,06,25,05,54,15.40
2012,06,25,05,55,15.30
2012,06,25,05,56,15.30
2012,06,25,05,57,15.30
2012,06,25,05,58,15.30
2012,06,25,05,59,15.30
2012,06,25,06,00,15.30
2012,06,25,06,01,15.30
2012,06,25,06,02,15.40
2012,06,25,06,03,15.40
2012,06,25,06,04,15.40
2012,06,25,06,05,15.40
2012,06,25,06,06,15.40
2012,06,25,06,07,15.40
2012,06,25,06,08,15.50
2012,06,25,06,09,15.50
2012,06,25,06,10,15.50
2012,06,25,06,11,15.50
2012,06,25,06,12,15.50
2012,06,25,06,13,15.50
2012,06,25,06,14,15.60
2012,06,25,06,15,15.60
2012,06,25,06,16,15.60
2012,06,25,06,17,15.60
2012,06,25,06,18,15.60
2012,06,25,06,19,15.60
2012,06,25,06,20,15.60
2012,06,25,06,21,15.60
2012,06,25,06,22,15.60
2012,06,25,06,23,15.60
2012,06,25,06,24,15.60
2012,06,25,06,25,15.50
2012,06,25,06,26,15.50
2012,06,25,06,27,15.50
2012,06,25,06,28,15.50
2012,06,25,06,29,15.50
2012,06,25,06,30,15.50
2012,06,25,06,31,15.50
2012,06,25,06,32,15.50
2012,06,25,06,33,15.50
2012,06,25,06,34,15.40
2012,06,25,06,35,15.40
2012,06,25,06,36,15.40
2012,06,25,06,37,15.40
2012,06,25,06,38,15.40
2012,06,25,06,39,15.40
2012,06,25,06,40,15.40
2012,06,25,06,41,15.40
2012,06,25,06,42,15.40
2012,06,25,06,43,15.40
2012,06,25,06,44,15.40
2012,06,25,06,45,15.40
2012,06,25,06,46,15.40
2012,06,25,06,47,15.40
2012,06,25,06,48,15.40
2012,06,25,06,49,15.40
2012,06,25,06,50,15.40
2012,06,25,06,51,15.40
2012,06,25,06,52,15.40
2012,06,25,06,53,15.40
2012,06,25,06,54,15.30
2012,06,25,06,55,15.30
2012,06,25,06,56,15.30
2012,06,25,06,57,15.30
2012,06,25,06,58,15.30
2012,06,25,06,59,15.30
2012,06,25,07,00,15.30
2012,06,25,07,01,15.20
2012,06,25,07,02,15.20
2012,06,25,07,03,15.20
2012,06,25,07,04,15.20
2012,06,25,07,05,15.20
2012,06,25,07,06,15.10
2012,06,25,07,07,15.10
2012,06,25,07,08,15.10
2012,06,25,07,09,15.10
2012,06,25,07,10,15.10
2012,06,25,07,11,15.00
2012,06,25,07,12,15.00
2012,06,25,07,13,15.00
2012,06,25,07,14,15.00
2012,06,25,07,15,14.90
2012,06,25,07,16,14.90
2012,06,25,07,17,14.90
2012,06,25,07,18,14.90
2012,06,25,07,19,14.80
2012,06,25,07,20,14.80
2012,06,25,07,21,14.80
2012,06,25,07,22,14.70
2012,06,25,07,23,14.70
2012,06,25,07,24,14.70
2012,06,25,07,25,14.70
2012,06,25,07,26,14.60
2012,06,25,07,27,14.60
2012,06,25,07,28,14.60
2012,06,25,07,29,14.60
2012,06,25,07,30,14.60
2012,06,25,07,31,14.60
2012,06,25,07,32,14.50
2012,06,25,07,33,14.50
2012,06,25,07,34,14.50
2012,06,25,07,35,14.50
2012,06,25,07,36,14.50
2012,06,25,07,37,14.50
2012,06,25,07,38,14.50
2012,06,25,07,39,14.50
2012,06,25,07,40,14.50
2012,06,25,07,41,14.60
2012,06,25,07,42,14.60
2012,06,25,07,43,14.60
2012,06,25,07,44,14.70
2012,06,25,07,45,14.70
2012,06,25,07,46,14.70
2012,06,25,07,47,14.80
2012,06,25,07,48,14.80
2012,06,25,07,49,14.80
2012,06,25,07,50,14.80
2012,06,25,07,51,14.90
2012,06,25,07,52,14.90
2012,06,25,07,53,14.90
2012,06,25,07,54,15.00
2012,06,25,07,55,15.00
2012,06,25,07,56,15.10
2012,06,25,07,57,15.20
2012,06,25,07,58,15.20
2012,06,25,07,59,15.30
2012,06,25,08,00,15.40
2012,06,25,08,01,15.50
2012,06,25,08,02,15.60
2012,06,25,08,03,15.70
2012,06,25,08,04,15.80
2012,06,25,08,05,15.90
2012,06,25,08,06,16.00
2012,06,25,08,07,16.10
2012,06,25,08,08,16.20
2012,06,25,08,09,16.30
2012,06,25,08,10,16.30
2012,06,25,08,11,16.40
2012,06,25,08,12,16.40
2012,06,25,08,13,16.50
2012,06,25,08,14,16.50
2012,06,25,08,15,16.50
2012,06,25,08,16,16.60
2012,06,25,08,17,16.60
2012,06,25,08,18,16.70
2012,06,25,08,19,16.70
2012,06,25,08,20,16.80
2012,06,25,08,21,16.80
2012,06,25,08,22,16.80
2012,06,25,08,23,16.90
2012,06,25,08,24,16.90
2012,06,25,08,25,16.90
2012,06,25,08,26,17.00
2012,06,25,08,27,17.00
2012,06,25,08,28,17.10
2012,06,25,08,29,17.10
2012,06,25,08,30,17.10
2012,06,25,08,31,17.20
2012,06,25,08,32,17.20
2012,06,25,08,33,17.20
2012,06,25,08,34,17.20
2012,06,25,08,35,17.20
2012,06,25,08,36,17.10
2012,06,25,08,37,17.10
2012,06,25,08,38,17.00
2012,06,25,08,39,17.00
2012,06,25,08,40,17.00
2012,06,25,08,41,16.90
2012,06,25,08,42,16.90
2012,06,25,08,43,16.90
2012,06,25,08,44,16.80
2012,06,25,08,45,16.80
2012,06,25,08,46,16.80
2012,06,25,08,47,16.80
2012,06,25,08,48,16.70
2012,06,25,08,49,16.70
2012,06,25,08,50,16.70
2012,06,25,08,51,16.70
2012,06,25,08,52,16.70
2012,06,25,08,53,16.70
2012,06,25,08,54,16.70
2012,06,25,08,55,16.70
2012,06,25,08,56,16.70
2012,06,25,08,57,16.70
2012,06,25,08,58,16.70
2012,06,25,08,59,16.70
2012,06,25,09,00,16.80
2012,06,25,09,01,16.80
2012,06,25,09,02,16.80
2012,06,25,09,03,16.80
2012,06,25,09,04,16.80
2012,06,25,09,05,16.80
2012,06,25,09,06,16.80
2012,06,25,09,07,16.90
2012,06,25,09,08,16.90
2012,06,25,09,09,16.90
2012,06,25,09,10,16.90
2012,06,25,09,11,17.00
2012,06,25,09,12,17.00
2012,06,25,09,13,17.10
2012,06,25,09,14,17.10
2012,06,25,09,15,17.10
2012,06,25,09,16,17.20
2012,06,25,09,17,17.20
2012,06,25,09,18,17.30
2012,06,25,09,19,17.30
2012,06,25,09,20,17.40
2012,06,25,09,21,17.40
2012,06,25,09,22,17.50
2012,06,25,09,23,17.50
2012,06,25,09,24,17.60
2012,06,25,09,25,17.60
2012,06,25,09,26,17.70
2012,06,25,09,27,17.70
2012,06,25,09,28,17.80
2012,06,25,09,29,17.80
2012,06,25,09,30,17.90
2012,06,25,09,31,17.90
2012,06,25,09,32,18.00
2012,06,25,09,33,18.00
2012,06,25,09,34,18.00
2012,06,25,09,35,18.00
2012,06,25,09,36,18.10
2012,06,25,09,37,18.10
2012,06,25,09,38,18.10
2012,06,25,09,39,18.10
2012,06,25,09,40,18.10
2012,06,25,09,41,18.10
2012,06,25,09,42,18.10
2012,06,25,09,43,18.20
2012,06,25,09,44,18.20
2012,06,25,09,45,18.20
2012,06,25,09,46,18.20
2012,06,25,09,47,18.20
2012,06,25,09,48,18.20
2012,06,25,09,49,18.20
2012,06,25,09,50,18.20
2012,06,25,09,51,18.20
2012,06,25,09,52,18.10
2012,06,25,09,53,18.10
2012,06,25,09,54,18.00
2012,06,25,09,55,18.00
2012,06,25,09,56,17.90
2012,06,25,09,57,17.80
2012,06,25,09,58,17.80
2012,06,25,09,59,17.80
2012,06,25,10,00,17.70
2012,06,25,10,01,17.70
2012,06,25,10,02,17.70
2012,06,25,10,03,17.60
2012,06,25,10,04,17.60
2012,06,25,10,05,17.60
2012,06,25,10,06,17.60
2012,06,25,10,07,17.60
2012,06,25,10,08,17.60
2012,06,25,10,09,17.60
2012,06,25,10,10,17.60
2012,06,25,10,11,17.60
2012,06,25,10,12,17.60
2012,06,25,10,13,17.60
2012,06,25,10,14,17.60
2012,06,25,10,15,17.60
2012,06,25,10,16,17.60
2012,06,25,10,17,17.70
2012,06,25,10,18,17.70
2012,06,25,10,19,17.70
2012,06,25,10,20,17.70
2012,06,25,10,21,17.80
2012,06,25,10,22,17.80
2012,06,25,10,23,17.80
2012,06,25,10,24,17.90
2012,06,25,10,25,17.90
2012,06,25,10,26,17.90
2012,06,25,10,27,17.90
2012,06,25,10,28,17.90
2012,06,25,10,29,17.90
2012,06,25,10,30,17.90
2012,06,25,10,31,17.90
2012,06,25,10,32,17.90
2012,06,25,10,33,17.90
2012,06,25,10,34,18.00
2012,06,25,10,35,18.00
2012,06,25,10,36,18.10
2012,06,25,10,37,18.10
2012,06,25,10,38,18.10
2012,06,25,10,39,18.20
2012,06,25,10,40,18.20
2012,06,25,10,41,18.30
2012,06,25,10,42,18.40
2012,06,25,10,43,18.50
2012,06,25,10,44,18.60
2012,06,25,10,45,18.70
2012,06,25,10,46,18.80
2012,06,25,10,47,18.90
2012,06,25,10,48,19.00
2012,06,25,10,49,19.10
2012,06,25,10,50,19.20
2012,06,25,10,51,19.30
2012,06,25,10,52,19.40
2012,06,25,10,53,19.50
2012,06,25,10,54,19.60
2012,06,25,10,55,19.80
2012,06,25,10,56,19.90
2012,06,25,10,57,20.10
2012,06,25,10,58,20.30
2012,06,25,10,59,20.40
2012,06,25,11,00,20.50
2012,06,25,11,01,20.60
2012,06,25,11,02,20.70
2012,06,25,11,03,20.80
2012,06,25,11,04,20.90
2012,06,25,11,05,21.00
2012,06,25,11,06,21.10
2012,06,25,11,07,21.20
2012,06,25,11,08,21.30
2012,06,25,11,09,21.30
2012,06,25,11,10,21.30
2012,06,25,11,11,21.30
2012,06,25,11,12,21.20
2012,06,25,11,13,21.10
2012,06,25,11,14,21.00
2012,06,25,11,15,21.00
2012,06,25,11,16,20.90
2012,06,25,11,17,20.80
2012,06,25,11,18,20.80
2012,06,25,11,19,20.70
2012,06,25,11,20,20.60
2012,06,25,11,21,20.60
2012,06,25,11,22,20.60
2012,06,25,11,23,20.60
2012,06,25,11,24,20.60
2012,06,25,11,25,20.70
2012,06,25,11,26,20.80
2012,06,25,11,27,20.80
2012,06,25,11,28,20.90
2012,06,25,11,29,21.00
2012,06,25,11,30,21.10
2012,06,25,11,31,21.20
2012,06,25,11,32,21.20
2012,06,25,11,33,21.30
2012,06,25,11,34,21.30
2012,06,25,11,35,21.30
2012,06,25,11,36,21.30
2012,06,25,11,37,21.30
2012,06,25,11,38,21.40
2012,06,25,11,39,21.40
2012,06,25,11,40,21.50
2012,06,25,11,41,21.50
2012,06,25,11,42,21.60
2012,06,25,11,43,21.60
2012,06,25,11,44,21.70
2012,06,25,11,45,21.70
2012,06,25,11,46,21.80
2012,06,25,11,47,21.80
2012,06,25,11,48,21.90
2012,06,25,11,49,21.90
2012,06,25,11,50,22.00
2012,06,25,11,51,22.10
2012,06,25,11,52,22.20
2012,06,25,11,53,22.20
2012,06,25,11,54,22.20
2012,06,25,11,55,22.20
2012,06,25,11,56,22.10
2012,06,25,11,57,22.10
2012,06,25,11,58,22.00
2012,06,25,11,59,22.00
2012,06,25,12,00,22.00
2012,06,25,12,01,22.10
2012,06,25,12,02,22.10
2012,06,25,12,03,22.10
2012,06,25,12,04,22.20
2012,06,25,12,05,22.20
2012,06,25,12,06,22.30
2012,06,25,12,07,22.30
2012,06,25,12,08,22.40
2012,06,25,12,09,22.40
2012,06,25,12,10,22.50
2012,06,25,12,11,22.60
2012,06,25,12,12,22.70
2012,06,25,12,13,22.80
2012,06,25,12,14,22.90
2012,06,25,12,15,22.90
2012,06,25,12,16,23.00
2012,06,25,12,17,23.10
2012,06,25,12,18,23.20
2012,06,25,12,19,23.20
2012,06,25,12,20,23.30
2012,06,25,12,21,23.30
2012,06,25,12,22,23.40
2012,06,25,12,23,23.50
2012,06,25,12,24,23.60
2012,06,25,12,25,23.60
2012,06,25,12,26,23.70
2012,06,25,12,27,23.80
2012,06,25,12,28,23.80
2012,06,25,12,29,23.90
2012,06,25,12,30,23.90
2012,06,25,12,31,23.80
2012,06,25,12,32,23.80
2012,06,25,12,33,23.70
2012,06,25,12,34,23.60
2012,06,25,12,35,23.60
2012,06,25,12,36,23.50
2012,06,25,12,37,23.50
2012,06,25,12,38,23.40
2012,06,25,12,39,23.30
2012,06,25,12,40,23.20
2012,06,25,12,41,23.10
2012,06,25,12,42,23.10
2012,06,25,12,43,23.00
2012,06,25,12,44,23.00
2012,06,25,12,45,22.90
2012,06,25,12,46,22.90
2012,06,25,12,47,22.90
2012,06,25,12,48,23.00
2012,06,25,12,49,23.00
2012,06,25,12,50,23.10
2012,06,25,12,51,23.10
2012,06,25,12,52,23.20
2012,06,25,12,53,23.20
2012,06,25,12,54,23.30
2012,06,25,12,55,23.30
2012,06,25,12,56,23.40
2012,06,25,12,57,23.50
2012,06,25,12,58,23.50
2012,06,25,12,59,23.60
2012,06,25,13,00,23.70
2012,06,25,13,01,23.80
2012,06,25,13,02,23.90
2012,06,25,13,03,23.90
2012,06,25,13,04,23.90
2012,06,25,13,05,23.90
2012,06,25,13,06,23.90
2012,06,25,13,07,24.00
2012,06,25,13,08,24.00
2012,06,25,13,09,23.90
2012,06,25,13,10,23.90
2012,06,25,13,11,23.90
2012,06,25,13,12,23.90
2012,06,25,13,13,23.90
2012,06,25,13,14,23.90
2012,06,25,13,15,23.90
2012,06,25,13,16,23.90
2012,06,25,13,17,23.90
2012,06,25,13,18,24.00
2012,06,25,13,19,24.00
2012,06,25,13,20,24.00
2012,06,25,13,21,24.00
2012,06,25,13,22,24.00
2012,06,25,13,23,24.10
2012,06,25,13,24,24.10
2012,06,25,13,25,24.20
2012,06,25,13,26,24.30
2012,06,25,13,27,24.30
2012,06,25,13,28,24.40
2012,06,25,13,29,24.40
2012,06,25,13,30,24.50
2012,06,25,13,31,24.50
2012,06,25,13,32,24.60
2012,06,25,13,33,24.60
2012,06,25,13,34,24.60
2012,06,25,13,35,24.70
2012,06,25,13,36,24.70
2012,06,25,13,37,24.60
2012,06,25,13,38,24.60
2012,06,25,13,39,24.60
2012,06,25,13,40,24.60
2012,06,25,13,41,24.60
2012,06,25,13,42,24.60
2012,06,25,13,43,24.60
2012,06,25,13,44,24.70
2012,06,25,13,45,24.70
2012,06,25,13,46,24.80
2012,06,25,13,47,24.80
2012,06,25,13,48,24.80
2012,06,25,13,49,24.80
2012,06,25,13,50,24.70
2012,06,25,13,51,24.70
2012,06,25,13,52,24.80
2012,06,25,13,53,24.80
2012,06,25,13,54,24.80
2012,06,25,13,55,24.90
2012,06,25,13,56,24.90
2012,06,25,13,57,24.90
2012,06,25,13,58,24.90
2012,06,25,13,59,24.90
2012,06,25,14,00,25.00
2012,06,25,14,01,25.10
2012,06,25,14,02,25.10
2012,06,25,14,03,25.10
2012,06,25,14,04,25.10
2012,06,25,14,05,25.20
2012,06,25,14,06,25.30
2012,06,25,14,07,25.40
2012,06,25,14,08,25.40
2012,06,25,14,09,25.60
2012,06,25,14,10,25.60
2012,06,25,14,11,25.70
2012,06,25,14,12,25.80
2012,06,25,14,13,25.80
2012,06,25,14,14,25.80
2012,06,25,14,15,25.80
2012,06,25,14,16,25.80
2012,06,25,14,17,25.90
2012,06,25,14,18,25.90
2012,06,25,14,19,25.90
2012,06,25,14,20,25.90
2012,06,25,14,21,25.90
2012,06,25,14,22,25.80
2012,06,25,14,23,25.80
2012,06,25,14,24,25.80
2012,06,25,14,25,25.80
2012,06,25,14,26,25.80
2012,06,25,14,27,25.70
2012,06,25,14,28,25.70
2012,06,25,14,29,25.60
2012,06,25,14,30,25.60
2012,06,25,14,31,25.60
2012,06,25,14,32,25.50
2012,06,25,14,33,25.50
2012,06,25,14,34,25.50
2012,06,25,14,35,25.60
2012,06,25,14,36,25.60
2012,06,25,14,37,25.60
2012,06,25,14,38,25.60
2012,06,25,14,39,25.60
2012,06,25,14,40,25.60
2012,06,25,14,41,25.60
2012,06,25,14,42,25.60
2012,06,25,14,43,25.60
2012,06,25,14,44,25.60
2012,06,25,14,45,25.60
2012,06,25,14,46,25.60
2012,06,25,14,47,25.60
2012,06,25,14,48,25.60
2012,06,25,14,49,25.60
2012,06,25,14,50,25.60
2012,06,25,14,51,25.60
2012,06,25,14,52,25.50
2012,06,25,14,53,25.50
2012,06,25,14,54,25.40
2012,06,25,14,55,25.40
2012,06,25,14,56,25.30
2012,06,25,14,57,25.30
2012,06,25,14,58,25.30
2012,06,25,14,59,25.30
2012,06,25,15,00,25.30
2012,06,25,15,01,25.40
2012,06,25,15,02,25.50
2012,06,25,15,03,25.50
2012,06,25,15,04,25.60
2012,06,25,15,05,25.70
2012,06,25,15,06,25.80
2012,06,25,15,07,25.80
2012,06,25,15,08,25.80
2012,06,25,15,09,25.90
2012,06,25,15,10,25.90
2012,06,25,15,11,25.90
2012,06,25,15,12,25.90
2012,06,25,15,13,25.90
2012,06,25,15,14,25.90
2012,06,25,15,15,26.00
2012,06,25,15,16,26.00
2012,06,25,15,17,26.10
2012,06,25,15,18,26.10
2012,06,25,15,19,26.10
2012,06,25,15,20,26.00
2012,06,25,15,21,26.00
2012,06,25,15,22,25.90
2012,06,25,15,23,25.90
2012,06,25,15,24,25.90
2012,06,25,15,25,25.80
2012,06,25,15,26,25.80
2012,06,25,15,27,25.80
2012,06,25,15,28,25.80
2012,06,25,15,29,25.70
2012,06,25,15,30,25.70
2012,06,25,15,31,25.70
2012,06,25,15,32,25.70
2012,06,25,15,33,25.70
2012,06,25,15,34,25.70
2012,06,25,15,35,25.60
2012,06,25,15,36,25.60
2012,06,25,15,37,25.60
2012,06,25,15,38,25.70
2012,06,25,15,39,25.70
2012,06,25,15,40,25.70
2012,06,25,15,41,25.70
2012,06,25,15,42,25.70
2012,06,25,15,43,25.70
2012,06,25,15,44,25.70
2012,06,25,15,45,25.80
2012,06,25,15,46,25.80
2012,06,25,15,47,25.70
2012,06,25,15,48,25.70
2012,06,25,15,49,25.70
2012,06,25,15,50,25.70
2012,06,25,15,51,25.70
2012,06,25,15,52,25.70
2012,06,25,15,53,25.60
2012,06,25,15,54,25.60
2012,06,25,15,55,25.60
2012,06,25,15,56,25.60
2012,06,25,15,57,25.60
2012,06,25,15,58,25.60
2012,06,25,15,59,25.50
2012,06,25,16,00,25.50
2012,06,25,16,01,25.50
2012,06,25,16,02,25.50
2012,06,25,16,03,25.50
2012,06,25,16,04,25.40
2012,06,25,16,05,25.40
2012,06,25,16,06,25.40
2012,06,25,16,07,25.40
2012,06,25,16,08,25.40
2012,06,25,16,09,25.40
2012,06,25,16,10,25.40
2012,06,25,16,11,25.40
2012,06,25,16,12,25.40
2012,06,25,16,13,25.40
2012,06,25,16,14,25.30
2012,06,25,16,15,25.30
2012,06,25,16,16,25.30
2012,06,25,16,17,25.30
2012,06,25,16,18,25.30
2012,06,25,16,19,25.30
2012,06,25,16,20,25.30
2012,06,25,16,21,25.30
2012,06,25,16,22,25.30
2012,06,25,16,23,25.30
2012,06,25,16,24,25.20
2012,06,25,16,25,25.20
2012,06,25,16,26,25.20
2012,06,25,16,27,25.20
2012,06,25,16,28,25.20
2012,06,25,16,29,25.20
2012,06,25,16,30,25.20
2012,06,25,16,31,25.20
2012,06,25,16,32,25.10
2012,06,25,16,33,25.10
2012,06,25,16,34,25.10
2012,06,25,16,35,25.00
2012,06,25,16,36,25.00
2012,06,25,16,37,24.90
2012,06,25,16,38,24.90
2012,06,25,16,39,24.90
2012,06,25,16,40,24.80
2012,06,25,16,41,24.80
2012,06,25,16,42,24.80
2012,06,25,16,43,24.70
2012,06,25,16,44,24.70
2012,06,25,16,45,24.70
2012,06,25,16,46,24.70
2012,06,25,16,47,24.70
2012,06,25,16,48,24.70
2012,06,25,16,49,24.70
2012,06,25,16,50,24.70
2012,06,25,16,51,24.70
2012,06,25,16,52,24.70
2012,06,25,16,53,24.70
2012,06,25,16,54,24.60
2012,06,25,16,55,24.60
2012,06,25,16,56,24.60
2012,06,25,16,57,24.60
2012,06,25,16,58,24.60
2012,06,25,16,59,24.60
2012,06,25,17,00,24.60
2012,06,25,17,01,24.60
2012,06,25,17,02,24.60
2012,06,25,17,03,24.60
2012,06,25,17,04,24.60
2012,06,25,17,05,24.60
2012,06,25,17,06,24.50
2012,06,25,17,07,24.40
2012,06,25,17,08,24.30
2012,06,25,17,09,24.30
2012,06,25,17,10,24.20
2012,06,25,17,11,24.10
2012,06,25,17,12,24.10
2012,06,25,17,13,24.00
2012,06,25,17,14,24.00
2012,06,25,17,15,23.90
2012,06,25,17,16,23.90
2012,06,25,17,17,23.90
2012,06,25,17,18,23.80
2012,06,25,17,19,23.80